Weather History for Fort Myers, FL

Change the Weather History Date:

Monday, January 14, 2013

  Actual Average Record
Temperature  
Mean Temperature 72 °F 64 °F  
Max Temperature 82 °F 74 °F 86 °F (1947)
Min Temperature 62 °F 53 °F 31 °F (1981)
Degree Days  
Heating Degree Days 0 4  
Month to date heating degree days 0 56  
Since 1 July heating degree days 58 149  
Cooling Degree Days 7 3  
Month to date cooling degree days 111 41  
Year to date cooling degree days 111 41  
Growing Degree Days 22 (Base 50)    
Moisture  
Dew Point 61 °F    
Average Humidity 74    
Maximum Humidity 100    
Minimum Humidity 49    
Precipitation  
Precipitation 0.00 in 0.07 in 1.03 in (1995)
Month to date precipitation 0.46 0.89  
Year to date precipitation 0.46 0.89  
Sea Level Pressure  
Sea Level Pressure 30.15 in    
Wind  
Wind Speed 4 mph (SE)    
Max Wind Speed 14 mph    
Max Gust Speed 17 mph    
Visibility 10 miles    
Events      
T = Trace of Precipitation, MM = Missing Value Source: NWS Daily Summary

Daily Weather History Graph

Daily Weather History Graph

Search for Another Location

Airport:

Trip Planner

Search our weather history database for the weather conditions in past years. The results will help you decide how hot, cold, wet, or windy it might be!

Date:

Astronomy

Jan. 14, 2013 Rise Set
Actual Time 7:17 AM EST 5:56 PM EST
Civil Twilight 6:52 AM EST 6:21 PM EST
Nautical Twilight 6:23 AM EST 6:49 PM EST
Astronomical Twilight 5:55 AM EST 7:17 PM EST
Moon 9:12 AM EST (1/14) 9:15 PM EST (1/14)
Length of Visible Light 11h 28m
Length of Day
10h 38m
Waxing Crescent, 11% of the Moon is Illuminated
Jan 14
Waxing Crescent
Jan 18
First Quarter
Jan 26
Full
Feb 3
Last Quarter
Feb 10
New

Hourly Weather History & Observations

Time (EST) Temp. Heat Index Dew Point Humidity Pressure Visibility Wind Dir Wind Speed Gust Speed Precip Events Conditions
12:53 AM 64.9 °F - 61.0 °F 87% 30.14 in 10.0 mi Calm Calm - N/A   Clear
1:53 AM 64.0 °F - 60.1 °F 87% 30.14 in 10.0 mi Calm Calm - N/A   Clear
2:53 AM 63.0 °F - 60.1 °F 90% 30.14 in 10.0 mi Calm Calm - N/A   Mostly Cloudy
3:53 AM 64.0 °F - 62.1 °F 93% 30.13 in 10.0 mi East 4.6 mph - N/A   Overcast
4:53 AM 63.0 °F - 62.1 °F 97% 30.13 in 10.0 mi East 3.5 mph - N/A   Clear
5:53 AM 62.1 °F - 60.1 °F 93% 30.12 in 10.0 mi East 4.6 mph - N/A   Partly Cloudy
6:53 AM 63.0 °F - 61.0 °F 93% 30.14 in 10.0 mi ESE 6.9 mph - N/A   Clear
7:53 AM 64.0 °F - 61.0 °F 90% 30.15 in 10.0 mi ESE 3.5 mph - N/A   Partly Cloudy
8:53 AM 69.1 °F - 62.1 °F 78% 30.17 in 10.0 mi ESE 6.9 mph - N/A   Clear
9:53 AM 73.9 °F - 62.1 °F 66% 30.19 in 10.0 mi ESE 6.9 mph - N/A   Clear
10:53 AM 78.1 °F - 61.0 °F 56% 30.18 in 10.0 mi SSE 9.2 mph - N/A   Clear
11:53 AM 79.0 °F - 61.0 °F 54% 30.14 in 10.0 mi ESE 9.2 mph - N/A   Scattered Clouds
12:53 PM 81.0 °F 81.3 °F 59.0 °F 47% 30.12 in 10.0 mi SE 10.4 mph - N/A   Mostly Cloudy
2:53 PM 80.1 °F 81.1 °F 61.0 °F 52% 30.12 in 10.0 mi SW 4.6 mph - N/A   Overcast
3:53 PM 80.1 °F 81.1 °F 61.0 °F 52% 30.12 in 10.0 mi WSW 5.8 mph - N/A   Scattered Clouds
4:53 PM 79.0 °F - 60.1 °F 52% 30.13 in 10.0 mi SSW 6.9 mph - N/A   Scattered Clouds
5:53 PM 75.9 °F - 61.0 °F 60% 30.15 in 10.0 mi Calm Calm - N/A   Clear
6:53 PM 75.0 °F - 61.0 °F 62% 30.16 in 10.0 mi Calm Calm - N/A   Mostly Cloudy
7:53 PM 72.0 °F - 63.0 °F 73% 30.16 in 10.0 mi Calm Calm - N/A   Mostly Cloudy
8:53 PM 69.1 °F - 63.0 °F 81% 30.16 in 10.0 mi Calm Calm - N/A   Clear
9:53 PM 69.1 °F - 60.1 °F 73% 30.16 in 10.0 mi SE 4.6 mph - N/A   Clear
10:53 PM 66.9 °F - 60.1 °F 79% 30.15 in 10.0 mi Calm Calm - N/A   Clear
11:53 PM 66.0 °F - 60.1 °F 81% 30.14 in 10.0 mi Calm Calm - N/A   Clear